Location: Unspecified
(0.0000°N, 0.0000°E)
Time: 16:25:04
(UTC+00:00)

CZ-3C DEB - Pass Details

Date: 11 March 2026
Orbit: 1497 x 35067 km, 20.3° (Epoch: 12 June)

Event Time Altitude Azimuth Distance (km) Brightness Sun altitude
Rises 17:54:11 0° 299° (WNW) 5,982 ? 3.9°
Reaches altitude 10° 17:56:36 10° 302° (WNW) 5,510 ? 3.3°
Maximum altitude 01:25:20 64° 159° (SSE) 29,755 ? -70.8°
Drops below altitude 10° 03:58:36 10° 97° (E) 8,953 ? -32.7°
Sets 04:02:48 0° 93° (E) 8,900 ? -31.7°
